Hourly Data Report for December 17, 2003

SHERBROOKE A
QUEBEC

45°26'00.000" N
71°41'00.000" W
241.40 m
7028124
71610
YSC

Download Data

Hourly Data (December 2003)
Hourly Data Report for December 17, 2003
TIME
LST
Temp Definition
°C
Dew Point Definition
°C
Rel Hum Definition
%
Precip. Amount Definition
mm

Wind Dir Definition
10's deg

Wind Spd Definition
km/h
Visibility Definition
km
Stn Press Definition
kPa
Hmdx Definition


Wind Chill Definition


Weather Definition


00:00 -8.8 -10.8 85   7 6 15.0 98.21   -12  
01:00 -8.8 -10.6 87   21 4 15.0 98.17   -11  
02:00 -9.6 -11.3 87   7 4 15.0 98.16   -12  
03:00 -10.3 -12.0 87   10 4 15.0 98.14   -13  
04:00 -10.1 -11.5 89   11 6 15.0 98.11   -14  
05:00 -6.5 -9.3 80   11 9 15.0 98.05   -11  
06:00 -6.0 -9.1 79   9 6 15.0 98.06   -9  
07:00 -3.8 -7.4 76   9 7 15.0 98.04   -7  
08:00 -2.5 -6.3 75   12 13 24.1 98.00   -7 Mostly Cloudy
09:00 -1.4 -4.6 79   11 11 24.1 97.92   -5 Mostly Cloudy
10:00 1.7 -1.9 77   13 7 24.1 97.88     Mostly Cloudy
11:00 2.4 -1.1 78   9 9 24.1 97.80     Cloudy
12:00 2.0 0.4 89   6 6 16.1 97.61     Rain
13:00 2.4 1.3 92   10 13 6.4 97.47     Rain, Fog
14:00 1.7 1.1 96   7 9 3.2 97.31     Rain, Fog
15:00 1.5 0.8 95   4 7 1.6 97.17     Moderate Rain, Fog
16:00 1.7 1.2 96   5 7 4.8 97.01     Rain,Ice Pellets, Fog
17:00 2.1 1.4 95   6 6 4.0 96.93     Rain, Fog
18:00 2.2 1.5 95   5 13 4.8 96.78     Moderate Rain
19:00 1.8 1.1 95   6 13 3.9 96.66     Moderate Rain
20:00 1.7 1.1 96   5 7 5.6 96.46     Moderate Rain
21:00 1.6 1.0 96   30 4 0.5 96.23     Moderate Rain
22:00 1.2 0.7 96   24 11 0.8 96.01     Rain
23:00 0.4 -0.2 96   27 22 8.0 95.88     Moderate Rain

Notes on Data Quality.

Legend

  • E = Estimated
  • M = Missing
  • NA = Not Available*
  • [empty] = Indicates an unobserved value
Date modified: